www.pogodaiklimat.ru

Погода и климат >> Архив погоды >> Австралия >> Longreach Airport


ПОГОДА в Longreach Airport

  • Прогноз погоды в Longreach Airport
  • Монитор погоды в Longreach Airport
  • Климат города

АРХИВ ПОГОДЫ в Longreach Airport

Время (UTC), дата Ветер
(напр.,м/с)
 
Видим.   Явления Облачность Т
(С)
Тd
(С)
f
(%)
Тe
(С)
Тes
(С)
Комфортность P
(гПа)
Po
(гПа)
Тmin
(С)
Tmax
(С)
R
(мм)
R24
(мм)
S
(см)
23 15.07 ЮВ 3 н/о н/о +16.8 +10.9 68 +17 +17 1019.7 996.9
00 16.07 ЮВ 3 н/о н/о +19.9 +11.1 57 +22 +22 комфорт 1019.7 996.9
02 16.07 ЮЗ 2 н/о н/о +24.8 +8.7 36 +25 +25 комфорт 1018.4 995.6 +11.1
03 16.07 СВ 2 н/о н/о +25.6 +6.8 30 +25 +25 комфорт 1017.2 994.4
05 16.07 З 4 н/о н/о +27.1 +6.0 26 +26 +26 жарко 1015.9 993.1
06 16.07 З 3 н/о н/о +27.0 +5.3 25 +26 +26 жарко 1015.8 993.0
08 16.07 СЗ 3 н/о н/о +23.6 +4.5 29 +23 +23 комфорт 1016.1 993.3
09 16.07 ЮЗ 2 н/о н/о +20.0 +4.9 37 +21 +21 комфорт 1016.6 993.8
11 16.07 С 3 н/о н/о +14.4 +2.9 46 +14 +14 1018.0 995.2
12 16.07 З 2 н/о н/о +15.7 +4.7 48 +16 +16 1018.4 995.6
14 16.07 Ю 3 н/о н/о +13.8 +3.6 50 +13 +13 1017.8 995.0 +28.2
15 16.07 ЮВ 4 н/о н/о +14.7 +4.4 50 +14 +14 1017.8 995.0
17 16.07 З 3 н/о н/о +11.3 +4.1 61 +10 +10 1017.8 995.0
18 16.07 С 4 н/о н/о +10.1 +3.8 65 +8 +8 1018.0 995.2
20 16.07 Ю 3 н/о н/о +9.6 +4.0 68 +8 +8 1018.5 995.7
21 16.07 Ю 2 н/о н/о +8.9 +3.5 69 +8 +8 1019.0 996.2
23 16.07 СВ 2 н/о н/о +18.0 +5.6 44 +19 +19 1020.3 997.4
00 17.07 С 4 н/о н/о +21.8 +8.0 41 +23 +23 комфорт 1020.3 997.4
02 17.07 С 5 н/о н/о +26.4 +7.9 31 +26 +26 жарко 1019.2 996.4 +8.4
03 17.07 СЗ 6 н/о н/о +27.9 +8.2 29 +28 +28 жарко 1017.9 995.1
05 17.07 З 6 н/о н/о +29.1 +5.9 23 +28 +28 жарко 1016.2 993.4
06 17.07 СЗ 4 н/о н/о +28.9 +6.3 24 +28 +28 жарко 1016.0 993.2
08 17.07 З 2 н/о н/о +24.8 +5.1 28 +24 +24 комфорт 1016.2 993.4
09 17.07 штиль 0 н/о н/о +21.4 +4.9 34 +22 +22 комфорт 1017.0 994.2
11 17.07 Ю 3 н/о н/о +18.2 +4.7 41 +18 +18 1017.6 994.8
12 17.07 ЮЗ 4 н/о н/о +18.1 +3.6 38 +18 +18 1018.0 995.2
14 17.07 В 3 н/о н/о +16.1 +4.2 45 +16 +16 1018.2 995.4 +29.7
15 17.07 ЮВ 4 н/о н/о +15.2 +3.4 45 +14 +14 1018.1 995.3
17 17.07 Ю 4 н/о н/о +13.5 +3.6 51 +12 +12 1018.2 995.4
18 17.07 Ю 4 н/о н/о +13.2 +3.3 51 +12 +12 1018.0 995.2
20 17.07 В 1 н/о н/о +11.5 +2.8 55 +13 +13 1019.0 996.2
21 17.07 В 3 н/о н/о +11.3 +3.3 58 +10 +10 1019.4 996.6
23 17.07 СВ 4 н/о н/о +21.1 +7.0 40 +22 +22 комфорт 1020.5 997.6
00 18.07 СВ 4 н/о н/о +23.1 +7.2 36 +24 +24 комфорт 1020.8 997.9
02 18.07 С 5 н/о н/о +27.5 +7.9 29 +27 +27 жарко 1019.1 996.3 +11.2
03 18.07 СЗ 4 н/о н/о +27.6 +7.5 28 +27 +27 жарко 1017.6 994.8
05 18.07 З 6 н/о н/о +29.3 +6.0 23 +28 +28 жарко 1015.9 993.1
06 18.07 З 4 н/о н/о +29.0 +5.1 22 +28 +28 жарко 1015.6 992.8
08 18.07 ЮЗ 4 н/о н/о +25.5 +0.9 20 +24 +24 комфорт 1016.3 993.5
09 18.07 ЮЗ 4 н/о н/о +22.2 -0.5 22 +21 +21 комфорт 1017.0 994.2
11 18.07 Ю 5 н/о н/о +20.8 +0.6 26 +21 +21 комфорт 1018.2 995.4
12 18.07 Ю 4 н/о н/о +18.5 +0.6 30 +18 +18 1018.3 995.5
14 18.07 Ю 4 н/о н/о +17.0 +0.6 33 +17 +17 1018.5 995.7 +29.8
15 18.07 Ю 4 н/о н/о +16.0 +1.0 36 +15 +15 1018.6 995.8
17 18.07 ЮЗ 3 н/о н/о +12.5 +0.6 44 +11 +11 1018.6 995.8
18 18.07 ЮЗ 4 н/о н/о +11.6 +0.7 47 +10 +10 1018.9 996.1
20 18.07 ЮЗ 4 н/о н/о +9.9 +0.5 52 +8 +8 1020.0 997.1
21 18.07 ЮЗ 4 н/о н/о +9.4 +0.6 54 +7 +7 1020.8 997.9
23 18.07 Ю 9 н/о н/о +14.1 +0.4 39 +12 +12 1021.9 999.0
00 19.07 Ю 10 н/о н/о +15.7 +0.3 35 +14 +14 1022.1 999.2
02 19.07 Ю 7 н/о н/о +18.7 -0.7 27 +18 +18 1021.1 998.2 +9.1
03 19.07 ЮЗ 7 н/о н/о +19.6 -2.1 23 +19 +19 1019.6 996.8
05 19.07 Ю 8 н/о н/о +21.2 -3.3 19 +20 +20 1018.3 995.5
06 19.07 Ю 7 н/о н/о +20.9 -3.6 19 +20 +20 1018.2 995.4
08 19.07 Ю 4 н/о н/о +18.1 -3.9 22 +18 +18 1019.1 996.3
09 19.07 ЮЗ 4 н/о н/о +15.6 -3.3 27 +15 +15 1019.8 997.0
11 19.07 Ю 3 н/о н/о +12.8 -3.0 33 +12 +12 1021.0 998.1
12 19.07 Ю 4 н/о н/о +13.0 -2.5 34 +12 +12 1021.1 998.2
14 19.07 Ю 5 н/о н/о +11.7 -1.8 39 +10 +10 1020.3 997.4 +21.8
15 19.07 Ю 5 н/о н/о +10.4 -1.3 44 +8 +8 1019.7 996.9
17 19.07 ЮВ 4 н/о н/о +6.7 -1.7 55 +4 +4 1019.4 996.6
18 19.07 ЮВ 4 н/о н/о +6.9 -1.5 55 +4 +4 1019.6 996.8
20 19.07 ЮВ 4 н/о н/о +5.7 -1.7 59 +2 +2 1020.6 997.7
21 19.07 ЮВ 3 н/о н/о +4.9 -2.0 61 +2 +2 1021.4 998.5
23 19.07 ЮВ 5 н/о н/о +12.2 +1.2 47 +10 +10 1022.4 999.5
00 20.07 ЮВ 6 н/о н/о +15.7 +3.2 43 +14 +14 1022.6 999.7
02 20.07 ЮВ 5 н/о н/о +18.3 +2.2 34 +18 +18 1021.0 998.1 +4.6
03 20.07 ЮВ 4 н/о н/о +19.5 0.0 27 +20 +20 1019.3 996.5
05 20.07 ЮВ 4 н/о н/о +20.9 -2.2 21 +21 +21 комфорт 1017.2 994.4
06 20.07 ЮВ 5 н/о н/о +21.5 -3.1 19 +21 +21 комфорт 1016.9 994.1
08 20.07 ЮВ 3 н/о н/о +18.5 -3.0 23 +19 +19 1017.4 994.6
09 20.07 ЮВ 2 н/о н/о +15.7 -2.7 28 +16 +16 1018.1 995.3
11 20.07 ЮВ 3 н/о н/о +11.8 -3.1 35 +11 +11 1018.7 995.9
12 20.07 ЮВ 3 н/о н/о +12.5 -2.1 36 +12 +12 1018.8 996.0
14 20.07 ЮВ 3 н/о н/о +10.6 -2.1 41 +9 +9 1018.5 995.7 +22.2
15 20.07 ЮВ 4 н/о н/о +9.4 -1.9 45 +7 +7 1018.0 995.2
17 20.07 Ю 4 н/о н/о +7.2 -2.8 49 +4 +4 1018.7 995.9
18 20.07 СВ 3 н/о н/о +3.8 -4.6 54 +1 +1 1017.9 995.1
20 20.07 Ю 3 н/о н/о +4.4 -2.4 61 +2 +2 1018.5 995.7
21 20.07 Ю 2 н/о н/о +9.5 -3.1 41 +10 +10 1019.2 996.4
23 20.07 В 3 н/о н/о +13.7 +0.7 41 +13 +13 1020.4 997.5
00 21.07 ЮВ 4 н/о н/о +18.5 +1.1 31 +18 +18 1020.8 997.9
02 21.07 СВ 3 н/о н/о +21.8 -1.5 21 +21 +21 комфорт 1019.5 996.7 +2.9
03 21.07 ЮВ 4 н/о н/о +22.9 -1.9 19 +22 +22 комфорт 1018.3 995.5
05 21.07 Ю 4 н/о н/о +24.4 -2.2 17 +23 +23 комфорт 1016.7 993.9
06 21.07 Ю 4 н/о н/о +23.7 -3.6 16 +22 +22 комфорт 1016.6 993.8
08 21.07 Ю 3 н/о н/о +20.2 -2.8 21 +20 +20 1017.6 994.8
09 21.07 Ю 4 н/о н/о +16.7 -2.9 26 +16 +16 1018.3 995.5
11 21.07 Ю 4 н/о н/о +13.3 -3.0 32 +12 +12 1019.8 997.0
12 21.07 ЮВ 4 н/о н/о +12.5 -2.5 35 +11 +11 1020.2 997.3
14 21.07 Ю 4 н/о н/о +11.6 -2.2 38 +10 +10 1019.8 997.0 +25.0
15 21.07 Ю 5 н/о н/о +10.1 -2.2 42 +8 +8 1019.5 996.7
17 21.07 ЮВ 4 н/о н/о +8.8 -2.2 46 +7 +7 1019.0 996.2
18 21.07 ЮВ 3 н/о н/о +7.9 -2.4 48 +6 +6 1018.8 996.0
20 21.07 ЮВ 3 н/о н/о +6.5 -2.6 52 +4 +4 1019.7 996.9
21 21.07 ЮВ 4 н/о н/о +12.2 -2.2 37 +12 +12 1020.6 997.7
23 21.07 В 4 н/о н/о +15.2 -0.5 34 +15 +15 1021.7 998.8
00 22.07 СВ 5 н/о н/о +19.0 +1.1 30 +19 +19 1021.7 998.8
02 22.07 СВ 6 н/о н/о +22.9 +0.7 23 +22 +22 комфорт 1019.7 996.9 +5.7
03 22.07 СВ 4 н/о н/о +24.5 +0.8 21 +23 +23 комфорт 1018.5 995.7
05 22.07 С 3 н/о н/о +26.1 -0.8 17 +24 +24 комфорт 1016.8 994.0
06 22.07 СВ 4 н/о н/о +25.7 -2.0 16 +24 +24 комфорт 1016.4 993.6
08 22.07 В 3 н/о н/о +21.3 -2.5 20 +21 +21 комфорт 1017.1 994.3
09 22.07 В 5 н/о н/о +16.8 -2.8 26 +16 +16 1017.9 995.1
11 22.07 В 4 н/о н/о +14.9 -2.1 31 +14 +14 1018.9 996.1
12 22.07 ЮВ 5 н/о н/о +13.7 -3.1 31 +12 +12 1019.1 996.3
14 22.07 В 5 н/о н/о +11.8 -3.1 35 +10 +10 1018.6 995.8 +26.6
15 22.07 В 3 н/о н/о +9.8 -3.8 38 +8 +8 1018.6 995.8
17 22.07 В 3 н/о н/о +8.7 -3.5 42 +7 +7 1018.5 995.7
18 22.07 В 3 н/о н/о +8.3 -3.8 42 +7 +7 1018.5 995.7
20 22.07 В 3 н/о н/о +7.3 -3.2 47 +5 +5 1019.0 996.2
21 22.07 ЮВ 3 н/о н/о +6.6 -3.3 49 +4 +4 1019.6 996.8

 

Местоположение метеостанции Longreach Airport (Квинсленд, Австралия): широта -23.43 долгота 144.28 высота над уровнем моря 192 м.

В архиве по умолчанию представлена погода в Longreach Airport за последнюю неделю. Архивные данные за месяц целиком и за предыдущие месяцы, начиная с января 2011 года, Вы можете получить, выбрав интересующий диапазон дат из раскрывающегося списка и нажав кнопку "Ввод!".

Внимание! Время в таблицах - всемирное. Для получения местного времени необходимо прибавить поправку, которая в Longreach Airport равна 10 ч.

Смотрите также архив погоды в соседних городах и на ближайших метеорологических станциях:

Погода в Blackall Airport (Квинсленд, Австралия) (161 км)
Погода в Winton Airport (Квинсленд, Австралия) (170 км)
Погода в Hughenden Airport (Квинсленд, Австралия) (290 км)
Погода в Richmond Airport (Квинсленд, Австралия) (327 км)
Погода в Lochington (Квинсленд, Австралия) (335 км)
Погода в Clermont Airport (Квинсленд, Австралия) (349 км)
Погода в Charleville Aero (Квинсленд, Австралия) (387 км)
Погода в Trepell Airport (Квинсленд, Австралия) (392 км)
Погода в Emerald Airport (Квинсленд, Австралия) (398 км)
Погода в Julia Creek Airport (Квинсленд, Австралия) (404 км)

Пояснения к столбцам:

Ветер - указаны скорость ветра в м/с - средняя за 10 мин, порывы в срок и между сроками (в фигурных скобках) и направление, откуда дует ветер: С - северный, СВ - северо-восточный, В - восточный, ЮВ - юго-восточный, Ю - южный, ЮЗ - юго-западный, З - западный, СЗ - северо-западный.
Видимость - горизонтальная дальность видимости в метрах или километрах. При видимости от 1 до 10 км при отсутствии осадков обычно наблюдается дымка, при ухудшении видимости до 1 км и менее - туман. В сухую погоду видимость может ухудшаться дымом, пылью или мглою.
Явления - указаны атмосферные явления, наблюдавшиеся в срок или в последний час перед сроком; фигурными скобками обозначены явления, наблюдавшиеся между сроками (за 1-3 часа до срока); квадратными скобками обозначены град или гололедные отложения с указанием их диаметра в мм.
Облачность - указаны через наклонную черту общая и нижняя облачность в баллах и высота нижней границы облаков в метрах; квадратными скобками обозначены формы облаков: Ci - перистые, Cs - перисто-слоистые, Cc - перисто-кучевые, Ac - высококучевые, As - высокослоистые, Sc - слоисто-кучевые, Ns - слоисто-дождевые, Cu - кучевые, Cb - кучево-дождевые. Подробнее классификацию облаков см. в Атласе облаков (PDF).
T - Температура воздуха - температура, измеренная на высоте 2 м над землей.
Td - Температура точки росы - температура, при понижении до которой содержащийся в воздухе водяной пар достигнет насыщения.
f - Относительная влажность воздуха - влажноcть воздуха, измеренная на высоте 2 м над землей.
Te - Эффективная температура - температура, которую ощущает одетый по сезону человек в тени. Характеристика душности погоды. При расчете учитывается влияние влажности воздуха и скорости ветра на теплоощущения человека.
Tes - Эффективная температура на солнце - температура, которую ощущает человек, с поправкой на солнечный нагрев. Характеристика знойности погоды. Зависит от высоты солнца над горизонтом, облачности и скорости ветра. Ночью, в пасмурную погоду, а также при ветре 12 м/с и более поправка равна нулю.
P - Атмосферное давление - приведенное к уровню моря атмосферное давление.
Po - Атмосферное давление - измеренное на уровне метеостанции атмосферное давление.
Tmin - Минимальная температура - минимум температуры воздуха на высоте 2 м над землей.
Tmax - Максимальная температура - максимум температуры воздуха на высоте 2 м над землей.
R - Количество осадков - Количество выпавших осадков за период времени, мм. При наведении курсора мыши на число - период времени, за который выпало указанное количество осадков.
R24 - Количество осадков - Количество выпавших осадков за 24 часа, мм.
S - Снежный покров - Высота снежного покрова, см. При наведении курсора мыши на число - состояние снежного покрова и степень покрытия местности в баллах.